SL-8 DEB, 21919

Orbit data source: Space-Track

SL-8 DEB, 21919 is space debris in LEO originally from a launch on Tue, 12 Feb 1991 UTC launched from the Plesetsk Missile And Space Complex (PKMTR). Debris objects in space refer to the collection of defunct objects orbiting the Earth. Examples of debris include non-operational satellites, rocket bodies, and fragments generated from explosions, collisions, or faulty payload assembly.

Loading next visibility...
Identifier
21919, 1991-009CC
Orbit
LEO
Country
Flag of CISCIS
Related business
Manufacturer
Unknown
Mission
Spacecraft
Bus & Motor
Unknown
Mass
Unknown
Launch date (UTC)
1991-02-12 (35 years ago)
Launch vehicle
Unknown
Launch site
Plesetsk Missile And Space Complex (PKMTR)
Object type
Payload
Rocket body
Debris
Shape & HBR
Unknown shape, 0.1 m
Radar Cross Section
Medium (>0.1 m² and <1 m²)

Expand to show TLE details & history
Last TLE update: 15 hours ago

TLE from 15 hours ago
0 SL-8 DEB
1 21919U 91009CC  26171.27637610 -.00000046  00000-0 -47579-3 0  9997
2 21919  74.0650 106.0125 0356422   0.9402 151.4326 11.75207007508979
Epoch: 2026-06-20T06:37Z
TLE epoch observation values (Epoch: 2026-06-20T06:37:58.895Z)
Latitude
24.71775°
Longitude
-89.49378°
Altitude
2,054.344 km
Speed
6.769 km/s
True Right ascension
18h 33m 58s
True Declination
24° 36' 27"
Sunlit
Object was in partial shadow at epoch
Visualization orbit readout
Latitude
Unknown
Longitude
Unknown
Altitude
Unknown
Speed
Unknown
Apparent Right ascension
Unknown
Apparent Declination
Unknown
Sunlit
N/A
Visualization observer readout
Local Sidereal Time
08:46:28
Azimuth
Unknown
Elevation
Unknown
Doppler factor
Unknown
Orbital elements
Apogee altitude
2,082.919 km
Perigee altitude
1,500.535 km
Semi-major axis
8,169.864 km
Eccentricity
0.03564
Inclination
74.065°
RAAN
106.0125°
Arg. of periapsis
0.9402°
True anomaly
153.31169°
Mean anomaly
151.4326°
Eccentric anomaly
152.37937°
Mean motion
2.93914 °/min
Orbital period
122.48 mins
BSTAR
-0.00047579
Loading maneuver chart data...
Computing Atmospheric mass density...
Loading historical data...
Loading historical data...
Loading historical data...
Loading historical data...
Loading historical data...
Loading historical data...
Loading historical data...

Documentation

Showing up to 5 results
|